Regional Weather Roundup
Issued by NWS

Home | Current Version | Previous Version | Text Only | Print | Product List | Glossary On
Versions: 1 2 3 4 5 6 7 8 9 10 11 12 13 14 15 16 17 18 19 20 21 22 23 24 25 26 27 28 29 30 31 32 33 34 35 36 37 38 39 40 41 42 43 44 45 46 47 48 49 50
000
ASUS45 KTFX 241510
RWRMT
MONTANA REGIONAL WEATHER ROUNDUP
NATIONAL WEATHER SERVICE GREAT FALLS MT
900 AM MDT SUN SEP 24 2017

NOTE: "FAIR" INDICATES FEW OR NO CLOUDS BELOW 12000 FEET WITH NO
SIGNIFICANT WEATHER AND/OR OBSTRUCTIONS TO VISIBILITY.

MTZ001>007-043-241600-
WEST OF THE DIVIDE

CITY           SKY/WX    TMP DP  RH WIND       PRES   REMARKS
KALISPELL      CLOUDY    41  40  96 CALM      30.13S
MISSOULA       MOSUNNY   36  34  92 SE5       30.17R
BUTTE          SUNNY     32  29  88 CALM      30.12S
MULLAN PASS    CLOUDY    36  33  89 NW5       30.12R
ANACONDA         N/A     34  28  80 CALM      30.14R
DEER LODGE       N/A     30  28  93 SE3       30.15F
EUREKA           N/A     43  41  93 CALM      30.14R
HAMILTON         N/A     36  30  80 S6        30.15S WCI  31
LIBBY            N/A     43  39  87 CALM      30.12S
PLAINS           N/A     41  37  85 CALM      30.13
$$

MTZ008-052>055-241600-
SOUTHWEST MONTANA

CITY           SKY/WX    TMP DP  RH WIND       PRES   REMARKS
BOZEMAN        CLOUDY    40  36  86 CALM      30.11S
DILLON         CLOUDY    34  27  75 S3        30.09S
W YELLOWSTONE  CLOUDY    39  28  65 MISG      30.05R
ENNIS          CLOUDY    39  32  75 N7G13     30.12S
THREE FORKS      N/A     34  30  85 CALM      30.09S
TWIN BRIDGES     N/A     31  25  78 CALM      30.07
$$

MTZ009-010-012-014-046-048-049-054-241600-
EAST SLOPES AND CENTRAL MONTANA

CITY           SKY/WX    TMP DP  RH WIND       PRES   REMARKS
CUT BANK       SUNNY     36  32  85 NW6       30.08S WCI  31
GREAT FALLS    SUNNY     39  33  79 SW3       30.10S
MALMSTROM AFB  SUNNY     38  34  87 SW5       30.10S
HELENA         SUNNY     36  33  89 CALM      30.12R
BOWMANS CRNR     N/A     34  32  92 SW7       30.08S WCI  28
CHOTEAU          N/A     37  32  81 SW5       30.10S
FAIRFIELD        N/A     37  32  82 S3        30.09R
POWER            N/A     34  33  94 S5        30.08S
RAYNESFORD       N/A     35  30  82 CALM      30.10S
ULM              N/A     38  32  77 SE7       30.10S
$$

MTZ011-013-016-021-045-047-050-051-241600-
NORTH CENTRAL MONTANA

CITY           SKY/WX    TMP DP  RH WIND       PRES   REMARKS
HAVRE          CLOUDY    41  39  93 CALM      30.10R
LEWISTOWN      SUNNY     40  38  93 CALM      30.10S
N BAR RANCH    CLOUDY    41  36  81 CALM      30.13S
CHINOOK          N/A     37  37 100 E3        30.11S
DENTON           N/A     38  33  82 S8        30.07S
GEYSER           N/A     40  31  71 SW7       30.09S
JUDITH GAP     CLOUDY    40  34  79 CALM      30.10R
WINIFRED         N/A     42  39  89 SE7       30.10R
$$

MTZ017>020-022>027-061-062-241600-
NORTHEAST MONTANA

CITY           SKY/WX    TMP DP  RH WIND       PRES   REMARKS
GLASGOW        CLOUDY    45  41  86 CALM      30.12S
JORDAN           N/A     44  42  93 CALM      30.12S
SIDNEY         LGT RAIN  44  42  93 N10       30.10
WOLF POINT     CLOUDY    47  44  90 CALM      30.13R
MALTA          CLOUDY    39  39 100 CALM      30.13S
PLENTYWOOD       N/A     45  43  93 CALM      30.12F
POPLAR           N/A     46  43  87 CALM      30.13F
SCOBEY           N/A     44  38  79 CALM      30.11
$$

MTZ028>42-056>058-241600-
SOUTHCENTRAL AND SOUTHEAST MONTANA

CITY           SKY/WX    TMP DP  RH WIND       PRES   REMARKS
BAKER          CLOUDY    41  38  89 N10       30.09S
BILLINGS       CLOUDY    41  38  89 NW5       30.12R
LIVINGSTON     CLOUDY    39  34  82 NW3       30.10S
MILES CITY     CLOUDY    43  40  89 N5        30.12S
BIG TIMBER     CLOUDY    39  37  93 W6        30.12F
EKALAKA          N/A     40  38  93 N6        30.04
HARLOWTON      CLOUDY    36  34  92 MISG      30.10S
LAUREL           N/A     39  37  93 S3        30.13R
$$

REGIONAL REPORTS...DAKOTAS

CITY           SKY/WX    TMP DP  RH WIND       PRES   REMARKS
WILLISTON      LGT RAIN  45  42  89 N13       30.10F
MINOT          CLOUDY    47  45  93 NW12      30.03F
DICKINSON      CLOUDY    44  43  96 N12       30.02R
BEACH          DRIZZLE   41  41 100 N10       30.10F
CROSBY         CLOUDY    43  43 100 N8        30.12F
TIOGA          LGT RAIN  43  43 100 N10       30.10F
BISMARCK       LGT RAIN  49  48  97 N14       29.99R
GRAND FORKS    LGT RAIN  53  53 100 N16       29.86S
FARGO          CLOUDY    56  56 100 N9        29.83F FOG
BUFFALO SD       N/A     45  42  89 N13       29.99R
RAPID CITY     CLOUDY    45  43  93 NW21      30.03R
$$

REGIONAL REPORTS...WYOMING/IDAHO/WASHINGTON

CITY           SKY/WX    TMP DP  RH WIND       PRES   REMARKS
GILLETTE       CLOUDY    39  39 100 N12       30.06S FOG     WCI  32
SHERIDAN       CLOUDY    41  40  96 NW9       30.11R
BUFFALO WY     CLOUDY    38  36  92 N13       30.09S WCI  30
CODY           CLOUDY    37  35  92 NE8       30.10S WCI  31
IDAHO FALLS    MOSUNNY   38  31  76 VRB3      30.01R
SALMON         SUNNY     37  31  78 CALM      30.14R
BOISE          SUNNY     39  35  86 S3        30.05R
SPOKANE        MOSUNNY   47  44  90 CALM      30.12R
$$

REGIONAL REPORTS...ALBERTA

CITY           SKY/WX    TMP DP  RH WIND       PRES   REMARKS
EDMONTON       CLOUDY    45  37  76 S8        29.99F
CALGARY        MOSUNNY   39  34  81 SW5       30.05S
LETHBRIDGE     SUNNY     32  30  93 W3        30.08S
MEDICINE HAT   MOSUNNY   37  34  87 VRB2      30.09S
$$

REGIONAL REPORTS...SASKATCHEWAN

CITY           SKY/WX    TMP DP  RH WIND       PRES   REMARKS
SWIFT CURRENT    N/A     45  39  81 SE6       30.10S
REGINA         MOSUNNY   39  36  87 NE5       30.14R
SASKATOON      PTSUNNY   46  39  76 S5        30.14S
$$



USA.gov is the U.S. government's official web portal to all federal, state and local government web resources and services.